TimeAEST,TemperatureF,Dew PointF,Humidity,Sea Level PressureIn,VisibilityMPH,Wind Direction,Wind SpeedMPH,Gust SpeedMPH,PrecipitationIn,Events,Conditions,WindDirDegrees,DateUTC
12:00 AM,78,71,72,29.80,,SSW,11.5,,,,,200,2013-01-04 14:00:00
12:00 AM,77.0,71.6,83,29.80,6.2,South,11.5,-,N/A,,Partly Cloudy,190,2013-01-04 14:00:00
12:30 AM,77.0,71.6,83,29.77,6.2,South,11.5,-,N/A,,Partly Cloudy,190,2013-01-04 14:30:00
1:00 AM,77,70,74,29.78,,South,13.8,,,,,180,2013-01-04 15:00:00
1:00 AM,77.0,69.8,78,29.77,6.2,South,13.8,-,N/A,,Partly Cloudy,180,2013-01-04 15:00:00
1:30 AM,77.0,69.8,78,29.74,6.2,South,11.5,-,N/A,,Scattered Clouds,180,2013-01-04 15:30:00
2:00 AM,77.0,69.8,78,29.74,6.2,South,12.7,-,N/A,,Partly Cloudy,170,2013-01-04 16:00:00
2:30 AM,77.0,69.8,78,29.74,6.2,South,13.8,25.3,N/A,,Partly Cloudy,170,2013-01-04 16:30:00
3:00 AM,76,69,73,29.75,,South,11.5,,,,,170,2013-01-04 17:00:00
3:00 AM,77.0,69.8,78,29.74,6.2,South,11.5,-,N/A,,Partly Cloudy,170,2013-01-04 17:00:00
3:30 AM,77.0,68.0,74,29.74,6.2,South,11.5,-,N/A,,Partly Cloudy,170,2013-01-04 17:30:00
4:00 AM,77,68,66,29.75,,South,10.4,,,,,180,2013-01-04 18:00:00
4:00 AM,77.0,68.0,74,29.74,6.2,South,10.4,-,N/A,,Partly Cloudy,180,2013-01-04 18:00:00
5:00 AM,77.0,68.0,74,29.74,6.2,South,12.7,-,N/A,,Partly Cloudy,180,2013-01-04 19:00:00
5:30 AM,77.0,68.0,74,29.77,4.3,SSE,12.7,-,N/A,,Scattered Clouds,160,2013-01-04 19:30:00
5:41 AM,73.4,69.8,88,29.77,3.1,SE,13.8,-,N/A,Rain,Light Rain Showers,140,2013-01-04 19:41:00
6:00 AM,74,71,88,29.79,6,South,11.5,,,,Mostly Cloudy,180,2013-01-04 20:00:00
6:00 AM,75.2,71.6,89,29.77,6.2,South,11.5,-,N/A,,Mostly Cloudy,180,2013-01-04 20:00:00
6:30 AM,73.4,71.6,94,29.80,5.6,South,10.4,-,N/A,Rain,Light Rain Showers,180,2013-01-04 20:30:00
7:00 AM,76,70,78,29.82,,South,10.4,,,,,180,2013-01-04 21:00:00
7:00 AM,75.2,69.8,83,29.80,6.2,South,10.4,-,N/A,,Mostly Cloudy,180,2013-01-04 21:00:00
7:30 AM,77.0,69.8,78,29.80,6.2,South,11.5,-,N/A,Rain,Light Rain Showers,180,2013-01-04 21:30:00
8:00 AM,78.8,69.8,74,29.80,6.2,South,15.0,-,N/A,,Partly Cloudy,180,2013-01-04 22:00:00
8:30 AM,80.6,71.6,74,29.83,6.2,South,11.5,-,N/A,,Scattered Clouds,180,2013-01-04 22:30:00
9:00 AM,82,72,64,29.83,16,South,9.2,,,,Partly Cloudy,170,2013-01-04 23:00:00
9:00 AM,82.4,71.6,70,29.83,6.2,South,9.2,-,N/A,,Scattered Clouds,170,2013-01-04 23:00:00
9:30 AM,86.0,71.6,62,29.83,6.2,SE,12.7,-,N/A,,Scattered Clouds,140,2013-01-04 23:30:00
10:00 AM,86,72,54,29.83,,SSE,15.0,,,,,150,2013-01-05 00:00:00
10:00 AM,86.0,71.6,62,29.83,6.2,SSE,15.0,-,N/A,,Scattered Clouds,150,2013-01-05 00:00:00
10:30 AM,86.0,71.6,62,29.83,6.2,SE,19.6,-,N/A,,Scattered Clouds,140,2013-01-05 00:30:00
11:00 AM,86.0,71.6,62,29.80,6.2,SE,17.3,-,N/A,,Scattered Clouds,130,2013-01-05 01:00:00
11:30 AM,87.8,71.6,58,29.80,6.2,SE,19.6,-,N/A,,Scattered Clouds,140,2013-01-05 01:30:00
12:00 PM,88,72,50,29.81,16,SE,20.7,,,,Partly Cloudy,130,2013-01-05 02:00:00
12:00 PM,87.8,71.6,58,29.80,6.2,SE,20.7,-,N/A,,Scattered Clouds,130,2013-01-05 02:00:00
12:30 PM,87.8,71.6,58,29.80,6.2,SE,19.6,-,N/A,,Partly Cloudy,140,2013-01-05 02:30:00
1:00 PM,89,70,44,29.80,,SE,20.7,,,,,130,2013-01-05 03:00:00
1:00 PM,89.6,69.8,52,29.77,6.2,SE,20.7,-,N/A,,Partly Cloudy,130,2013-01-05 03:00:00
1:30 PM,89.6,71.6,55,29.77,6.2,ESE,19.6,-,N/A,,Partly Cloudy,120,2013-01-05 03:30:00
2:00 PM,89.6,71.6,55,29.77,6.2,SE,20.7,-,N/A,,Scattered Clouds,130,2013-01-05 04:00:00
2:30 PM,87.8,69.8,55,29.77,6.2,SE,21.9,-,N/A,,Partly Cloudy,130,2013-01-05 04:30:00
3:00 PM,88,69,44,29.77,16,SE,23.0,,,,Partly Cloudy,130,2013-01-05 05:00:00
3:00 PM,87.8,69.8,55,29.77,6.2,SE,23.0,-,N/A,,Partly Cloudy,130,2013-01-05 05:00:00
3:30 PM,87.8,69.8,55,29.77,6.2,SE,21.9,-,N/A,,Partly Cloudy,130,2013-01-05 05:30:00
4:00 PM,87,70,48,29.77,,SE,21.9,,,,,130,2013-01-05 06:00:00
4:00 PM,87.8,69.8,55,29.74,6.2,SE,21.9,-,N/A,,Partly Cloudy,130,2013-01-05 06:00:00
4:30 PM,86.0,69.8,58,29.77,6.2,SE,20.7,-,N/A,,Scattered Clouds,130,2013-01-05 06:30:00
5:00 PM,84.2,69.8,62,29.77,6.2,SE,18.4,-,N/A,,Scattered Clouds,140,2013-01-05 07:00:00
5:30 PM,80.6,75.2,84,29.80,6.2,SE,17.3,-,N/A,Rain,Light Rain Showers,140,2013-01-05 07:30:00
6:00 PM,81,73,71,29.81,,SE,15.0,,,,Overcast,130,2013-01-05 08:00:00
6:00 PM,80.6,73.4,79,29.80,6.2,SE,15.0,-,N/A,,Scattered Clouds,130,2013-01-05 08:00:00
6:30 PM,82.4,71.6,70,29.80,6.2,SE,18.4,-,N/A,,Scattered Clouds,140,2013-01-05 08:30:00
7:00 PM,81,70,63,29.84,,SSE,16.1,,,,,150,2013-01-05 09:00:00
7:00 PM,80.6,69.8,70,29.83,3.7,SSE,16.1,-,N/A,Rain,Rain Showers,150,2013-01-05 09:00:00
7:30 PM,77.0,71.6,83,29.83,6.2,East,10.4,-,N/A,,Mostly Cloudy,80,2013-01-05 09:30:00
8:00 PM,77.0,71.6,83,29.83,6.2,South,3.5,-,N/A,,Scattered Clouds,170,2013-01-05 10:00:00
8:23 PM,77.0,73.4,89,29.86,2.5,ESE,13.8,-,N/A,Rain,Rain Showers,120,2013-01-05 10:23:00
8:30 PM,77.0,73.4,89,29.86,4.3,SE,12.7,-,N/A,Rain,Light Rain Showers,130,2013-01-05 10:30:00
9:00 PM,76,71,82,29.85,,South,10.4,,,,Overcast,170,2013-01-05 11:00:00
9:00 PM,75.2,71.6,89,29.83,6.2,South,10.4,-,N/A,,Scattered Clouds,170,2013-01-05 11:00:00
9:30 PM,77.0,71.6,83,29.86,6.2,South,10.4,-,N/A,,Partly Cloudy,170,2013-01-05 11:30:00
10:00 PM,77,70,74,29.87,,SSE,8.1,,,,,160,2013-01-05 12:00:00
10:00 PM,77.0,69.8,78,29.86,6.2,SSE,8.1,-,N/A,,Scattered Clouds,160,2013-01-05 12:00:00
10:30 PM,77.0,71.6,83,29.86,6.2,SSE,10.4,-,N/A,Rain,Light Rain Showers,160,2013-01-05 12:30:00
11:00 PM,77.0,71.6,83,29.86,6.2,SSE,9.2,-,N/A,,Scattered Clouds,150,2013-01-05 13:00:00
11:30 PM,75.2,71.6,89,29.86,5.6,SSE,10.4,-,N/A,Rain,Light Rain Showers,150,2013-01-05 13:30:00